^^
Meteo Knjazevac Station Historical Data
Daily Summary for August 10, 2021 Units:  English    Metric   Both
Daily Weekly Monthly Yearly Custom
  High: Low: Average:
Temperature: 46.4 °F 43.9 °F 45.2 °F
Dew Point: 45.9 °F 43.6 °F 44.4 °F
Humidity: 99% 93% 97%
Wind Speed: 9mph 2mph 5.9mph
Wind Gust: 18mph - -
Wind- - South
Pressure: 30.30 in 30.21 in -
Precipitation: 0.29 in    
Historical Graphs
 
 
Tabular Data for August 10, 2021
Time Temperature Dew Point Pressure Wind Wind Speed Wind Gust Humidity Rainfall Rate (Hourly) solar Conditions
00:00 46 °F 44.1 °F 30.28 in North 5 mph 10 mph 93% 0.00 in 0 W/m2
00:10 46 °F 44.1 °F 30.29 in North 5 mph 12 mph 93% 0.00 in 0 W/m2
00:20 46 °F 44.1 °F 30.29 in North 5 mph 12 mph 93% 0.00 in 0 W/m2
00:30 46 °F 44.1 °F 30.29 in North 5 mph 13 mph 93% 0.00 in 0 W/m2
00:40 46 °F 44.1 °F 30.29 in North 5 mph 15 mph 93% 0.00 in 0 W/m2
00:50 46 °F 44.1 °F 30.29 in North 6 mph 12 mph 93% 0.00 in 0 W/m2
01:00 46.2 °F 44.3 °F 30.29 in North 3 mph 12 mph 93% 0.00 in 0 W/m2
01:10 46.2 °F 44.3 °F 30.29 in North 6 mph 12 mph 93% 0.00 in 0 W/m2
01:20 46.2 °F 44.3 °F 30.29 in North 7 mph 10 mph 93% 0.00 in 0 W/m2
01:30 46.4 °F 44.5 °F 30.29 in North 5 mph 12 mph 93% 0.00 in 0 W/m2
01:40 46.4 °F 44.5 °F 30.29 in North 3 mph 12 mph 93% 0.00 in 0 W/m2
01:50 46.4 °F 44.5 °F 30.29 in North 5 mph 13 mph 93% 0.01 in 0 W/m2
02:00 46.2 °F 44.6 °F 30.29 in North 6 mph 10 mph 94% 0.00 in 0 W/m2
02:10 46.2 °F 44.6 °F 30.28 in North 6 mph 12 mph 94% 0.00 in 0 W/m2
02:20 46 °F 44.4 °F 30.28 in North 7 mph 12 mph 94% 0.00 in 0 W/m2
02:30 46 °F 44.7 °F 30.28 in North 6 mph 14 mph 95% 0.01 in 0 W/m2
02:40 46 °F 44.7 °F 30.28 in North 6 mph 12 mph 95% 0.00 in 0 W/m2
02:50 45.9 °F 44.8 °F 30.28 in North 3 mph 9 mph 96% 0.00 in 0 W/m2
03:00 45.9 °F 44.8 °F 30.28 in North 5 mph 9 mph 96% 0.01 in 0 W/m2
03:10 45.7 °F 44.6 °F 30.28 in North 3 mph 12 mph 96% 0.01 in 0 W/m2
03:20 45.7 °F 44.6 °F 30.27 in North 5 mph 12 mph 96% 0.00 in 0 W/m2
03:30 45.7 °F 45.1 °F 30.28 in North 5 mph 12 mph 98% 0.00 in 0 W/m2
03:40 45.5 °F 45 °F 30.27 in North 6 mph 11 mph 98% 0.00 in 0 W/m2
03:50 45.5 °F 45 °F 30.28 in North 6 mph 11 mph 98% 0.00 in 0 W/m2
04:00 45.5 °F 45 °F 30.28 in North 5 mph 10 mph 98% 0.00 in 0 W/m2
04:10 45.5 °F 44.4 °F 30.28 in North 5 mph 10 mph 96% 0.00 in 0 W/m2
04:20 45.5 °F 44.4 °F 30.28 in North 5 mph 10 mph 96% 0.00 in 0 W/m2
04:30 45.5 °F 44.4 °F 30.28 in North 3 mph 13 mph 96% 0.00 in 0 W/m2
04:40 45.5 °F 44.4 °F 30.28 in North 2 mph 12 mph 96% 0.00 in 0 W/m2
04:50 45.5 °F 44.4 °F 30.28 in North 6 mph 12 mph 96% 0.00 in 0 W/m2
05:00 45.5 °F 45 °F 30.27 in North 5 mph 10 mph 98% 0.00 in 0 W/m2
05:10 45.5 °F 44.4 °F 30.27 in North 7 mph 12 mph 96% 0.00 in 0 W/m2
05:20 45.5 °F 44.4 °F 30.27 in North 6 mph 13 mph 96% 0.00 in 0 W/m2
05:30 45.3 °F 44.2 °F 30.27 in North 6 mph 10 mph 96% 0.00 in 0 W/m2
05:40 45.3 °F 44.2 °F 30.27 in North 5 mph 12 mph 96% 0.00 in 0 W/m2
05:50 45.1 °F 44.6 °F 30.28 in North 6 mph 12 mph 98% 0.00 in 0 W/m2
06:00 45.1 °F 44.6 °F 30.28 in North 6 mph 12 mph 98% 0.00 in 0 W/m2
06:10 45.1 °F 44.1 °F 30.27 in North 5 mph 12 mph 96% 0.00 in 0 W/m2
06:20 45.1 °F 44 °F 30.28 in North 5 mph 13 mph 96% 0.00 in 0 W/m2
06:30 45.1 °F 44.6 °F 30.28 in North 6 mph 13 mph 98% 0.01 in 0 W/m2
06:40 45 °F 44.4 °F 30.28 in North 6 mph 13 mph 98% 0.00 in 0 W/m2
06:50 45 °F 44.4 °F 30.28 in North 6 mph 16 mph 98% 0.00 in 2 W/m2
07:00 45 °F 44.4 °F 30.28 in North 8 mph 16 mph 98% 0.00 in 6 W/m2
07:10 44.8 °F 44.3 °F 30.27 in North 7 mph 12 mph 98% 0.00 in 11 W/m2
07:20 44.8 °F 43.7 °F 30.27 in North 6 mph 13 mph 96% 0.00 in 14 W/m2
07:30 45 °F 43.9 °F 30.27 in North 6 mph 15 mph 96% 0.00 in 13 W/m2
07:40 45 °F 43.9 °F 30.27 in North 5 mph 15 mph 96% 0.00 in 12 W/m2
07:50 44.8 °F 43.7 °F 30.28 in North 6 mph 13 mph 96% 0.00 in 22 W/m2
08:00 45 °F 43.9 °F 30.28 in North 7 mph 13 mph 96% 0.00 in 23 W/m2
08:10 45 °F 43.9 °F 30.28 in North 8 mph 14 mph 96% 0.00 in 23 W/m2
08:20 45 °F 43.9 °F 30.28 in North 8 mph 14 mph 96% 0.00 in 29 W/m2
08:30 45 °F 43.9 °F 30.28 in North 7 mph 14 mph 96% 0.00 in 45 W/m2
08:40 45.1 °F 44 °F 30.28 in North 7 mph 15 mph 96% 0.00 in 70 W/m2
08:50 45.1 °F 44.1 °F 30.28 in North 6 mph 13 mph 96% 0.00 in 86 W/m2
09:00 45.1 °F 43.8 °F 30.28 in North 7 mph 14 mph 95% 0.00 in 98 W/m2
09:10 45.3 °F 44 °F 30.28 in North 8 mph 13 mph 95% 0.00 in 106 W/m2
09:20 45.5 °F 43.9 °F 30.28 in North 8 mph 15 mph 94% 0.00 in 102 W/m2
09:30 45.5 °F 43.9 °F 30.28 in North 8 mph 13 mph 94% 0.00 in 67 W/m2
09:40 45.5 °F 43.9 °F 30.28 in North 6 mph 14 mph 94% 0.00 in 65 W/m2
09:50 45.5 °F 43.9 °F 30.29 in North 6 mph 14 mph 94% 0.00 in 59 W/m2
10:00 45.5 °F 43.9 °F 30.29 in North 7 mph 17 mph 94% 0.00 in 58 W/m2
10:10 45.5 °F 43.9 °F 30.29 in North 5 mph 14 mph 94% 0.00 in 70 W/m2
10:20 45.3 °F 43.7 °F 30.29 in North 6 mph 14 mph 94% 0.00 in 67 W/m2
10:30 45.3 °F 44 °F 30.30 in North 7 mph 15 mph 95% 0.00 in 69 W/m2
10:40 45.1 °F 44.1 °F 30.30 in North 6 mph 14 mph 96% 0.00 in 78 W/m2
10:50 45 °F 43.9 °F 30.30 in North 6 mph 17 mph 96% 0.01 in 83 W/m2
11:00 45 °F 44.4 °F 30.30 in North 5 mph 13 mph 98% 0.01 in 71 W/m2
11:10 44.8 °F 44.3 °F 30.30 in North 6 mph 12 mph 98% 0.00 in 63 W/m2
11:20 44.6 °F 44.3 °F 30.30 in North 5 mph 14 mph 99% 0.01 in 111 W/m2
11:30 44.8 °F 44.5 °F 30.30 in North 7 mph 14 mph 99% 0.01 in 149 W/m2
11:40 44.8 °F 44.5 °F 30.29 in North 6 mph 16 mph 99% 0.01 in 172 W/m2
11:50 45.1 °F 44.8 °F 30.29 in North 6 mph 13 mph 99% 0.01 in 159 W/m2
12:00 45.1 °F 44.9 °F 30.29 in North 7 mph 14 mph 99% 0.01 in 193 W/m2
12:10 45.3 °F 45.1 °F 30.29 in North 7 mph 15 mph 99% 0.00 in 243 W/m2
12:20 45.5 °F 45.3 °F 30.28 in North 6 mph 16 mph 99% 0.00 in 268 W/m2
12:30 45.7 °F 45.4 °F 30.28 in North 9 mph 18 mph 99% 0.00 in 228 W/m2
12:40 45.9 °F 45.6 °F 30.28 in North 8 mph 16 mph 99% 0.00 in 211 W/m2
12:50 45.9 °F 45.6 °F 30.28 in North 8 mph 15 mph 99% 0.00 in 202 W/m2
13:00 45.7 °F 45.1 °F 30.28 in North 7 mph 15 mph 98% 0.00 in 163 W/m2
13:10 45.5 °F 45 °F 30.28 in North 7 mph 17 mph 98% 0.00 in 140 W/m2
13:20 45.5 °F 45.2 °F 30.27 in North 7 mph 15 mph 99% 0.00 in 149 W/m2
13:30 45.5 °F 45.2 °F 30.27 in North 6 mph 17 mph 99% 0.01 in 169 W/m2
13:40 45.3 °F 45.1 °F 30.27 in North 8 mph 16 mph 99% 0.00 in 156 W/m2
13:50 45.1 °F 44.9 °F 30.27 in North 8 mph 15 mph 99% 0.00 in 156 W/m2
14:00 45.1 °F 44.9 °F 30.27 in North 8 mph 13 mph 99% 0.01 in 165 W/m2
14:10 45 °F 44.7 °F 30.27 in North 7 mph 15 mph 99% 0.01 in 105 W/m2
14:20 45 °F 44.7 °F 30.27 in North 7 mph 17 mph 99% 0.01 in 64 W/m2
14:30 44.7 °F 44.5 °F 30.27 in North 6 mph 13 mph 99% 0.01 in 69 W/m2
14:40 44.6 °F 44.3 °F 30.27 in North 8 mph 17 mph 99% 0.01 in 72 W/m2
14:50 44.4 °F 44.2 °F 30.27 in North 7 mph 13 mph 99% 0.01 in 72 W/m2
15:00 44.2 °F 44 °F 30.27 in North 8 mph 14 mph 99% 0.01 in 68 W/m2
15:10 44.2 °F 44 °F 30.26 in North 7 mph 13 mph 99% 0.01 in 58 W/m2
15:20 44.2 °F 44 °F 30.26 in North 8 mph 13 mph 99% 0.01 in 50 W/m2
15:30 44.1 °F 43.8 °F 30.26 in North 7 mph 15 mph 99% 0.01 in 76 W/m2
15:40 44.1 °F 43.8 °F 30.26 in North 7 mph 13 mph 99% 0.01 in 65 W/m2
15:50 44.1 °F 43.8 °F 30.26 in North 6 mph 13 mph 99% 0.01 in 53 W/m2
16:00 44.1 °F 43.8 °F 30.25 in North 6 mph 14 mph 99% 0.01 in 43 W/m2
16:10 44 °F 43.8 °F 30.25 in North 6 mph 17 mph 99% 0.02 in 44 W/m2
16:20 43.9 °F 43.6 °F 30.25 in North 6 mph 12 mph 99% 0.01 in 37 W/m2
16:30 43.9 °F 43.6 °F 30.24 in North 7 mph 15 mph 99% 0.01 in 48 W/m2
16:40 43.9 °F 43.6 °F 30.24 in North 6 mph 12 mph 99% 0.01 in 45 W/m2
16:50 43.9 °F 43.6 °F 30.24 in North 7 mph 14 mph 99% 0.00 in 47 W/m2
17:00 43.9 °F 43.6 °F 30.24 in North 5 mph 16 mph 99% 0.00 in 48 W/m2
17:10 43.9 °F 43.6 °F 30.24 in North 7 mph 13 mph 99% 0.00 in 29 W/m2
17:20 43.9 °F 43.6 °F 30.23 in North 7 mph 12 mph 99% 0.00 in 16 W/m2
17:30 43.9 °F 43.6 °F 30.23 in North 3 mph 12 mph 99% 0.00 in 12 W/m2
17:40 43.9 °F 43.6 °F 30.23 in North 6 mph 14 mph 99% 0.00 in 6 W/m2
17:50 43.9 °F 43.6 °F 30.23 in North 5 mph 12 mph 99% 0.00 in 2 W/m2
18:00 43.9 °F 43.6 °F 30.23 in North 6 mph 13 mph 99% 0.00 in 0 W/m2
18:10 44.1 °F 43.8 °F 30.23 in North 6 mph 13 mph 99% 0.00 in 0 W/m2
18:20 44.1 °F 43.8 °F 30.24 in North 5 mph 12 mph 99% 0.00 in 0 W/m2
18:30 44.1 °F 43.8 °F 30.24 in North 7 mph 12 mph 99% 0.00 in 0 W/m2
18:40 44.1 °F 43.8 °F 30.24 in North 3 mph 12 mph 99% 0.00 in 0 W/m2
18:50 44.1 °F 43.8 °F 30.24 in North 7 mph 12 mph 99% 0.00 in 0 W/m2
19:00 44.2 °F 44 °F 30.24 in North 6 mph 13 mph 99% 0.00 in 0 W/m2
19:10 44.2 °F 44 °F 30.24 in North 5 mph 12 mph 99% 0.00 in 0 W/m2
19:20 44.2 °F 44 °F 30.24 in North 6 mph 14 mph 99% 0.01 in 0 W/m2
19:30 44.2 °F 44 °F 30.24 in NNE 5 mph 12 mph 99% 0.01 in 0 W/m2
19:40 44.2 °F 44 °F 30.24 in North 5 mph 12 mph 99% 0.00 in 0 W/m2
19:50 44.4 °F 44.1 °F 30.24 in North 5 mph 12 mph 99% 0.00 in 0 W/m2
20:00 44.4 °F 44.2 °F 30.24 in North 6 mph 12 mph 99% 0.00 in 0 W/m2
20:10 44.4 °F 44.2 °F 30.24 in NNE 5 mph 12 mph 99% 0.00 in 0 W/m2
20:20 44.6 °F 44.3 °F 30.24 in North 5 mph 12 mph 99% 0.00 in 0 W/m2
20:30 44.6 °F 44.3 °F 30.24 in North 6 mph 14 mph 99% 0.00 in 0 W/m2
20:40 44.8 °F 44.5 °F 30.24 in North 6 mph 13 mph 99% 0.00 in 0 W/m2
20:50 44.8 °F 44.5 °F 30.24 in North 5 mph 11 mph 99% 0.00 in 0 W/m2
21:00 45 °F 44.7 °F 30.23 in North 7 mph 12 mph 99% 0.00 in 0 W/m2
21:10 45.1 °F 44.8 °F 30.23 in North 2 mph 12 mph 99% 0.00 in 0 W/m2
21:20 45.1 °F 44.9 °F 30.23 in North 5 mph 12 mph 99% 0.00 in 0 W/m2
21:30 45.3 °F 45.1 °F 30.23 in North 3 mph 12 mph 99% 0.00 in 0 W/m2
21:40 45.4 °F 45.1 °F 30.23 in North 3 mph 12 mph 99% 0.00 in 0 W/m2
21:50 45.7 °F 45.1 °F 30.22 in North 6 mph 13 mph 98% 0.00 in 0 W/m2
22:00 45.9 °F 45.3 °F 30.22 in North 5 mph 13 mph 98% 0.00 in 0 W/m2
22:10 46 °F 45.5 °F 30.22 in North 5 mph 13 mph 98% 0.00 in 0 W/m2
22:20 46 °F 45.5 °F 30.22 in North 6 mph 13 mph 98% 0.00 in 0 W/m2
22:30 46.2 °F 45.7 °F 30.22 in North 7 mph 13 mph 98% 0.00 in 0 W/m2
22:40 46.2 °F 45.7 °F 30.22 in North 6 mph 14 mph 98% 0.00 in 0 W/m2
22:50 46.4 °F 45.9 °F 30.22 in North 6 mph 11 mph 98% 0.00 in 0 W/m2
23:00 46.4 °F 45.9 °F 30.22 in North 7 mph 14 mph 98% 0.00 in 0 W/m2
23:10 46.4 °F 45.9 °F 30.21 in North 6 mph 13 mph 98% 0.00 in 0 W/m2
23:20 46.4 °F 45.9 °F 30.21 in North 3 mph 12 mph 98% 0.00 in 0 W/m2
23:30 46.2 °F 45.7 °F 30.21 in North 5 mph 13 mph 98% 0.00 in 0 W/m2
23:40 46.2 °F 45.7 °F 30.21 in North 5 mph 16 mph 98% 0.00 in 0 W/m2
23:50 46.2 °F 45.7 °F 30.21 in North 8 mph 17 mph 98% 0.00 in 0 W/m2
Knjazevac, Serbia
Compliments of Weather Underground - 2 mb